[{"OBJECT_NAME":"O3B FM19","OBJECT_ID":"2019-020B","EPOCH":"2026-09-12T04:35:30.626016","MEAN_MOTION":5.00116022,"ECCENTRICITY":0.00029975,"INCLINATION":0.0774,"RA_OF_ASC_NODE":341.0536,"ARG_OF_PERICENTER":163.1211,"MEAN_ANOMALY":215.8453,"EPHEMERIS_TYPE":0,"CLASSIFICATION_TYPE":"U","NORAD_CAT_ID":44113,"ELEMENT_SET_NO":999,"REV_AT_EPOCH":13578,"BSTAR":0,"MEAN_MOTION_DOT":-2.8e-7,"MEAN_MOTION_DDOT":0},{"OBJECT_NAME":"O3B FM17","OBJECT_ID":"2019-020C","EPOCH":"2026-09-12T01:43:11.430912","MEAN_MOTION":5.00115699,"ECCENTRICITY":0.00025605,"INCLINATION":0.0479,"RA_OF_ASC_NODE":14.273,"ARG_OF_PERICENTER":158.8558,"MEAN_ANOMALY":186.8746,"EPHEMERIS_TYPE":0,"CLASSIFICATION_TYPE":"U","NORAD_CAT_ID":44114,"ELEMENT_SET_NO":999,"REV_AT_EPOCH":13587,"BSTAR":0,"MEAN_MOTION_DOT":-2.8e-7,"MEAN_MOTION_DDOT":0},{"OBJECT_NAME":"O3B FM18","OBJECT_ID":"2019-020D","EPOCH":"2026-09-11T14:50:16.921824","MEAN_MOTION":5.00115419,"ECCENTRICITY":0.00027379,"INCLINATION":0.0545,"RA_OF_ASC_NODE":352.8386,"ARG_OF_PERICENTER":178.3371,"MEAN_ANOMALY":188.8287,"EPHEMERIS_TYPE":0,"CLASSIFICATION_TYPE":"U","NORAD_CAT_ID":44115,"ELEMENT_SET_NO":999,"REV_AT_EPOCH":13596,"BSTAR":0,"MEAN_MOTION_DOT":-2.8e-7,"MEAN_MOTION_DDOT":0},{"OBJECT_NAME":"SES-17","OBJECT_ID":"2021-095A","EPOCH":"2026-09-12T06:44:37.966272","MEAN_MOTION":1.00270681,"ECCENTRICITY":0.00010064,"INCLINATION":0.032,"RA_OF_ASC_NODE":52.8588,"ARG_OF_PERICENTER":113.8699,"MEAN_ANOMALY":218.622,"EPHEMERIS_TYPE":0,"CLASSIFICATION_TYPE":"U","NORAD_CAT_ID":49332,"ELEMENT_SET_NO":999,"REV_AT_EPOCH":1872,"BSTAR":0,"MEAN_MOTION_DOT":-0.00000287,"MEAN_MOTION_DDOT":0},{"OBJECT_NAME":"SES-22","OBJECT_ID":"2022-071A","EPOCH":"2026-09-12T06:27:38.778912","MEAN_MOTION":1.00272241,"ECCENTRICITY":0.0001036,"INCLINATION":0.0188,"RA_OF_ASC_NODE":173.05,"ARG_OF_PERICENTER":347.7173,"MEAN_ANOMALY":148.417,"EPHEMERIS_TYPE":0,"CLASSIFICATION_TYPE":"U","NORAD_CAT_ID":52933,"ELEMENT_SET_NO":999,"REV_AT_EPOCH":839,"BSTAR":0,"MEAN_MOTION_DOT":0,"MEAN_MOTION_DDOT":0},{"OBJECT_NAME":"SES-20","OBJECT_ID":"2022-123A","EPOCH":"2026-09-12T04:51:41.296320","MEAN_MOTION":1.00271055,"ECCENTRICITY":0.00017034,"INCLINATION":0.0239,"RA_OF_ASC_NODE":93.4027,"ARG_OF_PERICENTER":12.6293,"MEAN_ANOMALY":215.0046,"EPHEMERIS_TYPE":0,"CLASSIFICATION_TYPE":"U","NORAD_CAT_ID":53960,"ELEMENT_SET_NO":999,"REV_AT_EPOCH":1440,"BSTAR":0,"MEAN_MOTION_DOT":-0.00000116,"MEAN_MOTION_DDOT":0},{"OBJECT_NAME":"SES-21","OBJECT_ID":"2022-123B","EPOCH":"2026-09-12T06:26:24.713376","MEAN_MOTION":1.00270961,"ECCENTRICITY":0.00010321,"INCLINATION":0.0326,"RA_OF_ASC_NODE":63.4859,"ARG_OF_PERICENTER":107.7078,"MEAN_ANOMALY":145.6917,"EPHEMERIS_TYPE":0,"CLASSIFICATION_TYPE":"U","NORAD_CAT_ID":53961,"ELEMENT_SET_NO":999,"REV_AT_EPOCH":808,"BSTAR":0,"MEAN_MOTION_DOT":5.5e-7,"MEAN_MOTION_DDOT":0},{"OBJECT_NAME":"O3B MPOWER F1","OBJECT_ID":"2022-174A","EPOCH":"2026-09-12T06:30:54.282240","MEAN_MOTION":5.0011444,"ECCENTRICITY":0.00069143,"INCLINATION":0.0432,"RA_OF_ASC_NODE":340.9705,"ARG_OF_PERICENTER":195.7853,"MEAN_ANOMALY":139.3473,"EPHEMERIS_TYPE":0,"CLASSIFICATION_TYPE":"U","NORAD_CAT_ID":54755,"ELEMENT_SET_NO":999,"REV_AT_EPOCH":6971,"BSTAR":0,"MEAN_MOTION_DOT":-2.8e-7,"MEAN_MOTION_DDOT":0},{"OBJECT_NAME":"O3B MPOWER F2","OBJECT_ID":"2022-174B","EPOCH":"2026-09-12T01:30:07.540128","MEAN_MOTION":5.0011829,"ECCENTRICITY":0.00055139,"INCLINATION":0.0401,"RA_OF_ASC_NODE":344.742,"ARG_OF_PERICENTER":180.739,"MEAN_ANOMALY":194.5347,"EPHEMERIS_TYPE":0,"CLASSIFICATION_TYPE":"U","NORAD_CAT_ID":54756,"ELEMENT_SET_NO":999,"REV_AT_EPOCH":6979,"BSTAR":0,"MEAN_MOTION_DOT":-2.8e-7,"MEAN_MOTION_DDOT":0},{"OBJECT_NAME":"SES-18","OBJECT_ID":"2023-038A","EPOCH":"2026-09-12T04:51:41.296320","MEAN_MOTION":1.0027179,"ECCENTRICITY":0.00020585,"INCLINATION":0.0498,"RA_OF_ASC_NODE":277.7391,"ARG_OF_PERICENTER":304.7151,"MEAN_ANOMALY":98.5744,"EPHEMERIS_TYPE":0,"CLASSIFICATION_TYPE":"U","NORAD_CAT_ID":55970,"ELEMENT_SET_NO":999,"REV_AT_EPOCH":1297,"BSTAR":0,"MEAN_MOTION_DOT":-0.00000116,"MEAN_MOTION_DDOT":0},{"OBJECT_NAME":"SES-19","OBJECT_ID":"2023-038B","EPOCH":"2026-09-12T06:27:38.778912","MEAN_MOTION":1.00273273,"ECCENTRICITY":0.00017541,"INCLINATION":0.0566,"RA_OF_ASC_NODE":280.7476,"ARG_OF_PERICENTER":251.7364,"MEAN_ANOMALY":140.8202,"EPHEMERIS_TYPE":0,"CLASSIFICATION_TYPE":"U","NORAD_CAT_ID":55971,"ELEMENT_SET_NO":999,"REV_AT_EPOCH":1296,"BSTAR":0,"MEAN_MOTION_DOT":7.3e-7,"MEAN_MOTION_DDOT":0},{"OBJECT_NAME":"O3B MPOWER F4","OBJECT_ID":"2023-059A","EPOCH":"2026-09-12T03:02:36.282048","MEAN_MOTION":5.00115023,"ECCENTRICITY":0.0007701,"INCLINATION":0.0603,"RA_OF_ASC_NODE":342.9417,"ARG_OF_PERICENTER":185.6439,"MEAN_ANOMALY":191.4317,"EPHEMERIS_TYPE":0,"CLASSIFICATION_TYPE":"U","NORAD_CAT_ID":56367,"ELEMENT_SET_NO":999,"REV_AT_EPOCH":6294,"BSTAR":0,"MEAN_MOTION_DOT":-2.8e-7,"MEAN_MOTION_DDOT":0},{"OBJECT_NAME":"O3B MPOWER F3","OBJECT_ID":"2023-059B","EPOCH":"2026-09-11T13:26:50.937792","MEAN_MOTION":5.00114921,"ECCENTRICITY":0.00064401,"INCLINATION":0.0607,"RA_OF_ASC_NODE":342.0462,"ARG_OF_PERICENTER":181.0984,"MEAN_ANOMALY":196.8764,"EPHEMERIS_TYPE":0,"CLASSIFICATION_TYPE":"U","NORAD_CAT_ID":56368,"ELEMENT_SET_NO":999,"REV_AT_EPOCH":5905,"BSTAR":0,"MEAN_MOTION_DOT":-2.8e-7,"MEAN_MOTION_DDOT":0},{"OBJECT_NAME":"O3B MPOWER F5","OBJECT_ID":"2023-175A","EPOCH":"2026-09-12T06:15:40.006944","MEAN_MOTION":5.00115605,"ECCENTRICITY":0.00061934,"INCLINATION":0.0601,"RA_OF_ASC_NODE":3.8698,"ARG_OF_PERICENTER":184.3133,"MEAN_ANOMALY":171.8068,"EPHEMERIS_TYPE":0,"CLASSIFICATION_TYPE":"U","NORAD_CAT_ID":58346,"ELEMENT_SET_NO":999,"REV_AT_EPOCH":5378,"BSTAR":0,"MEAN_MOTION_DOT":-2.8e-7,"MEAN_MOTION_DDOT":0},{"OBJECT_NAME":"O3B MPOWER F6","OBJECT_ID":"2023-175B","EPOCH":"2026-09-05T23:09:25.745184","MEAN_MOTION":5.00115509,"ECCENTRICITY":0.00044753,"INCLINATION":0.0576,"RA_OF_ASC_NODE":356.5617,"ARG_OF_PERICENTER":173.7664,"MEAN_ANOMALY":189.6806,"EPHEMERIS_TYPE":0,"CLASSIFICATION_TYPE":"U","NORAD_CAT_ID":58347,"ELEMENT_SET_NO":999,"REV_AT_EPOCH":5239,"BSTAR":0,"MEAN_MOTION_DOT":-2.3e-7,"MEAN_MOTION_DDOT":0},{"OBJECT_NAME":"ASTRA 1P (SES-24)","OBJECT_ID":"2024-115A","EPOCH":"2026-09-12T03:43:55.294176","MEAN_MOTION":1.00275968,"ECCENTRICITY":0.00021128,"INCLINATION":0.0625,"RA_OF_ASC_NODE":336.9134,"ARG_OF_PERICENTER":247.7496,"MEAN_ANOMALY":201.6893,"EPHEMERIS_TYPE":0,"CLASSIFICATION_TYPE":"U","NORAD_CAT_ID":60086,"ELEMENT_SET_NO":999,"REV_AT_EPOCH":806,"BSTAR":0,"MEAN_MOTION_DOT":0.00000105,"MEAN_MOTION_DDOT":0},{"OBJECT_NAME":"O3B MPOWER F7","OBJECT_ID":"2024-244A","EPOCH":"2026-09-12T00:40:21.165600","MEAN_MOTION":5.00115428,"ECCENTRICITY":0.00057128,"INCLINATION":0.0595,"RA_OF_ASC_NODE":334.9405,"ARG_OF_PERICENTER":190.8424,"MEAN_ANOMALY":194.2329,"EPHEMERIS_TYPE":0,"CLASSIFICATION_TYPE":"U","NORAD_CAT_ID":62362,"ELEMENT_SET_NO":999,"REV_AT_EPOCH":3087,"BSTAR":0,"MEAN_MOTION_DOT":-2.8e-7,"MEAN_MOTION_DDOT":0},{"OBJECT_NAME":"O3B MPOWER F8","OBJECT_ID":"2024-244B","EPOCH":"2026-09-12T04:40:41.659104","MEAN_MOTION":5.00114702,"ECCENTRICITY":0.00052457,"INCLINATION":0.0312,"RA_OF_ASC_NODE":36.3958,"ARG_OF_PERICENTER":124.3525,"MEAN_ANOMALY":199.2715,"EPHEMERIS_TYPE":0,"CLASSIFICATION_TYPE":"U","NORAD_CAT_ID":62363,"ELEMENT_SET_NO":999,"REV_AT_EPOCH":2521,"BSTAR":0,"MEAN_MOTION_DOT":-2.8e-7,"MEAN_MOTION_DDOT":0},{"OBJECT_NAME":"O3B MPOWER F9","OBJECT_ID":"2025-153A","EPOCH":"2026-09-12T03:04:38.373888","MEAN_MOTION":5.00115385,"ECCENTRICITY":0.00073008,"INCLINATION":0.0665,"RA_OF_ASC_NODE":357.3633,"ARG_OF_PERICENTER":186.1927,"MEAN_ANOMALY":176.4387,"EPHEMERIS_TYPE":0,"CLASSIFICATION_TYPE":"U","NORAD_CAT_ID":64866,"ELEMENT_SET_NO":999,"REV_AT_EPOCH":2391,"BSTAR":0,"MEAN_MOTION_DOT":-2.8e-7,"MEAN_MOTION_DDOT":0},{"OBJECT_NAME":"O3B MPOWER F10","OBJECT_ID":"2025-153B","EPOCH":"2026-09-12T02:15:53.482464","MEAN_MOTION":5.00114844,"ECCENTRICITY":0.00044999,"INCLINATION":0.0622,"RA_OF_ASC_NODE":355.5922,"ARG_OF_PERICENTER":270.7541,"MEAN_ANOMALY":93.6022,"EPHEMERIS_TYPE":0,"CLASSIFICATION_TYPE":"U","NORAD_CAT_ID":64867,"ELEMENT_SET_NO":999,"REV_AT_EPOCH":2638,"BSTAR":0,"MEAN_MOTION_DOT":-2.8e-7,"MEAN_MOTION_DDOT":0}]